Theta_e
301 301 301 301 301 302 302 303 303 303 303 302 303 302 302 302 303 301 297 299 294 287 294 295 296 291 292 291 285 288 289 288 287 282 282 281 279 285 286 290 289 288 285 284 283 280 281 300 299 293 296 300 301 301
300 301 301 301 301 302 302 302 302 302 302 302 302 302 302 303 303 302 295 299 300 294 294 299 298 300 298 297 293 291 289 289 290 286 286 285 280 280 284 282 294 286 289 287 288 287 297 302 302 303 303 301 302 303
301 301 301 302 302 302 302 301 301 302 302 302 302 303 303 303 303 302 296 298 297 292 294 294 295 302 305 303 301 290 291 296 294 295 291 289 282 286 279 282 286 292 297 291 291 295 299 301 304 305 305 303 305 304
300 301 301 302 302 301 301 301 302 302 302 302 303 303 303 303 303 301 297 298 297 292 286 290 302 300 306 304 303 300 299 300 298 295 289 287 287 292 284 288 286 289 295 293 292 296 300 301 304 304 306 305 304 305
300 301 301 302 302 301 301 301 301 302 302 302 302 303 303 303 303 300 298 300 301 293 287 290 297 300 302 303 301 302 300 297 293 289 286 286 291 291 291 290 287 295 294 290 289 299 298 299 302 306 303 301 304 305
300 300 301 301 301 301 302 301 301 301 302 302 302 302 302 302 302 299 293 299 304 302 290 284 296 295 299 300 300 300 299 297 297 291 287 291 297 294 287 284 291 295 296 298 294 297 300 301 302 303 300 302 304 303
300 300 301 301 301 301 301 301 301 301 302 302 302 302 302 301 300 294 291 298 303 301 291 287 287 296 299 299 296 297 298 295 294 293 289 291 294 295 286 284 292 294 299 299 300 298 297 300 300 303 303 303 302 302
300 300 301 301 301 301 301 301 301 302 302 302 302 302 302 302 301 297 300 302 302 296 293 283 287 289 296 290 290 295 290 291 291 290 290 291 293 292 286 291 292 292 294 295 295 300 298 302 301 300 301 300 298 294
299 299 299 299 300 301 301 301 301 301 302 301 301 302 300 298 294 295 303 303 302 294 283 282 280 284 294 290 289 290 290 281 289 283 287 291 289 284 285 287 289 290 289 290 295 298 299 298 297 297 298 296 291 286
298 298 299 298 298 298 299 300 301 301 301 301 299 293 289 294 300 301 297 292 291 290 289 282 287 285 291 288 286 283 283 280 280 284 290 286 283 286 286 287 287 289 289 290 290 290 291 292 290 289 287 286 285 283
299 299 298 299 299 299 300 299 299 300 300 293 291 289 295 299 295 290 283 283 285 282 286 286 288 286 289 285 286 287 284 284 276 282 283 284 279 282 284 284 285 286 288 288 288 287 286 287 286 283 281 281 281 280
299 299 299 299 299 299 299 300 300 296 293 293 293 295 293 290 285 280 277 281 282 282 285 283 286 286 283 290 286 286 284 283 277 285 279 276 278 281 282 282 282 284 284 284 284 283 283 282 282 280 279 279 278 278
298 298 298 298 299 299 299 299 300 300 300 295 291 285 285 280 274 273 273 278 280 282 283 286 281 281 285 288 284 285 283 282 287 279 274 275 279 281 281 281 280 281 281 280 279 280 279 279 279 278 277 277 277 277
298 298 298 298 298 299 298 297 297 295 292 284 280 273 273 272 274 275 277 278 282 282 281 283 283 285 285 284 284 283 284 282 276 271 271 276 279 280 280 281 279 278 278 277 277 277 276 276 276 276 276 276 276 275
298 298 298 297 298 298 297 296 296 290 284 278 277 271 272 276 275 279 280 280 282 282 282 285 285 287 284 283 280 280 275 270 272 270 275 277 279 279 279 279 278 277 277 276 277 276 276 276 276 275 276 276 276 275
299 297 295 298 298 298 297 293 288 287 280 275 274 270 273 268 267 271 277 278 281 280 282 283 284 281 278 275 273 271 271 268 270 273 275 279 277 277 278 278 278 278 277 276 276 276 276 275 275 275 275 275 275 275
297 291 297 298 298 297 296 288 283 279 276 275 271 269 267 263 265 270 277 277 281 279 278 280 273 273 279 273 271 273 268 270 273 274 275 276 276 277 277 278 277 277 277 277 276 277 276 277 276 275 273 274 275 274
292 294 298 298 297 293 289 285 280 278 274 274 269 273 272 270 270 272 277 277 277 277 277 273 276 269 265 266 266 271 272 273 274 274 274 275 275 275 276 275 275 275 274 274 275 275 275 275 275 274 274 274 274 273
294 295 297 297 295 288 282 282 282 274 275 276 275 275 273 274 276 276 276 277 277 277 275 270 265 265 265 269 269 271 273 273 271 271 272 272 274 274 273 273 273 273 273 273 272 272 272 273 273 273 274 273 271 271
297 297 296 296 295 286 282 282 285 278 276 275 276 273 273 272 274 274 274 275 275 272 268 265 265 267 268 270 271 274 273 274 272 269 269 270 272 271 271 271 271 272 272 272 272 272 271 270 270 271 270 270 269 267
294 293 294 293 289 288 283 281 281 280 278 278 278 278 273 275 272 271 271 274 270 269 266 268 268 271 272 272 273 272 271 272 271 271 269 268 271 271 270 270 271 270 269 269 269 269 269 268 268 268 268 266 266 266
289 293 287 287 283 283 282 283 281 281 278 277 276 277 269 266 265 269 273 269 268 269 270 270 270 270 270 270 271 271 271 272 271 271 271 271 269 269 269 269 269 268 268 268 268 266 267 268 268 266 265 264 265 264
290 288 282 281 277 276 275 282 277 281 275 275 274 272 270 266 270 274 265 270 270 271 269 270 270 270 271 271 272 271 272 271 269 269 269 269 269 269 269 269 269 268 267 267 268 266 264 264 264 264 264 263 262 260
287 279 275 274 276 270 273 273 279 276 273 271 270 266 271 270 271 265 264 268 271 273 271 269 270 269 269 270 268 269 270 271 270 269 269 268 267 266 267 267 268 268 267 267 266 264 262 259 259 260 258 257 256 255
272 271 272 268 273 271 267 266 268 270 263 266 264 264 268 270 262 262 263 267 268 267 268 271 271 270 267 266 268 268 270 269 267 265 267 269 267 266 265 265 265 265 266 262 260 259 255 256 256 256 255 254 256 252
266 271 269 272 268 270 271 266 264 264 264 264 266 268 264 261 257 259 265 264 263 266 265 265 267 266 266 267 266 266 267 269 267 264 264 265 267 263 260 259 260 262 263 257 256 255 255 253 253 254 251 252 251 253
264 263 273 277 275 275 268 268 270 265 262 262 263 260 258 254 255 263 268 267 267 267 270 271 270 268 266 266 267 267 267 267 265 264 265 264 264 263 260 256 256 259 259 257 253 253 252 250 249 248 248 247 247 248
270 270 263 264 264 267 258 258 257 257 259 268 264 255 254 255 259 265 265 267 265 270 269 269 269 268 267 267 267 265 264 264 264 264 263 263 261 257 256 255 257 260 252 251 251 250 251 249 248 248 250 252 251 252
265 267 266 257 259 261 263 259 260 264 267 265 255 257 260 267 265 264 265 265 267 268 266 265 263 264 263 262 260 260 259 258 257 255 251 250 250 256 254 252 253 255 254 253 259 253 252 250 250 250 249 249 248 246
266 268 261 256 257 259 260 262 260 258 264 263 265 266 265 263 266 268 267 269 266 264 262 264 265 261 255 254 251 253 252 249 250 255 252 250 253 255 250 251 251 250 249 249 250 252 256 252 256 253 250 248 246 246
270 265 261 260 257 257 258 256 258 262 258 257 254 255 257 259 261 263 263 262 261 260 261 257 255 251 255 252 250 248 250 252 249 253 254 252 248 248 249 249 248 250 249 248 248 248 247 247 246 247 247 247 246 246
263 257 259 257 260 262 263 262 260 257 255 254 254 251 255 255 254 256 260 257 260 259 257 254 255 253 250 249 247 248 252 251 250 252 251 249 248 248 250 253 252 250 248 248 249 249 249 248 247 246 247 247 245 245
260 259 256 257 259 259 261 262 258 260 259 257 258 257 257 258 255 258 261 260 258 258 257 253 251 250 251 252 253 251 252 250 250 258 254 253 251 251 247 246 247 247 248 247 246 248 249 250 250 248 247 245 245 244
Wind_Speed
25 26 27 27 26 23 23 24 25 27 27 30 29 30 31 31 32 19 4 12 7 2 5 21 10 13 9 9 5 4 2 2 2 6 7 5 4 6 4 4 7 11 7 4 2 2 4 5 6 6 5 6 5 5
26 26 27 24 21 21 18 20 21 25 28 31 30 30 30 30 31 25 4 10 9 3 5 2 5 11 22 15 9 6 6 6 6 4 1 3 1 1 6 7 2 4 8 7 10 8 4 2 4 5 2 3 6 5
25 26 24 18 17 15 16 17 22 22 28 31 30 30 30 29 31 21 6 10 7 9 5 2 6 4 5 5 6 6 2 5 1 4 5 2 3 5 3 7 3 4 4 3 3 4 5 2 2 1 2 5 9 7
26 22 19 17 14 12 14 17 18 10 31 31 30 30 30 30 31 18 10 8 7 5 4 3 3 6 2 4 4 5 5 4 5 3 3 4 4 2 5 5 6 7 4 5 3 1 0 0 5 5 4 5 10 7
24 21 19 16 15 15 13 11 18 26 29 29 29 30 28 29 30 12 4 7 6 5 4 5 5 2 4 6 6 5 5 6 3 2 3 3 2 3 4 2 4 4 6 6 7 8 7 7 10 8 6 5 2 6
21 21 15 15 17 19 17 18 21 22 23 24 26 29 31 30 24 11 5 4 6 6 3 4 1 3 5 7 5 3 1 2 4 5 3 2 3 3 1 4 5 4 1 5 4 3 8 6 7 7 7 3 1 2
20 16 12 17 19 21 22 24 25 26 27 30 31 32 31 25 4 2 4 8 11 7 4 3 3 3 7 3 1 2 1 1 4 4 3 3 2 5 4 7 13 14 8 8 7 5 3 2 4 6 8 4 5 7
21 21 20 23 21 22 23 26 30 30 32 28 27 28 26 14 8 3 5 12 3 6 3 4 2 4 4 3 2 1 2 3 3 3 2 3 2 1 2 8 14 12 10 11 16 10 5 5 7 6 4 5 12 10
24 27 27 26 26 22 21 23 27 24 22 20 18 17 7 3 3 3 9 10 3 4 4 3 4 4 2 2 2 3 3 2 1 3 2 4 3 2 5 9 14 13 10 12 11 11 12 12 9 8 8 10 13 10
19 18 18 19 19 18 18 19 18 15 13 11 7 4 4 3 4 1 6 4 5 4 4 3 0 3 3 1 1 3 2 2 2 5 4 3 4 5 8 9 12 13 11 13 6 8 9 7 9 10 12 11 11 11
11 12 12 14 14 12 12 10 7 4 4 4 3 4 2 5 2 3 3 4 1 4 3 1 3 4 3 4 3 1 1 1 2 4 6 4 4 4 9 8 11 13 12 9 8 8 9 9 8 9 12 13 12 13
10 15 16 16 15 18 19 17 7 4 1 4 6 3 2 5 4 7 2 3 5 3 4 3 2 3 1 1 2 1 3 3 4 1 4 4 4 9 10 11 13 12 10 10 11 12 13 13 12 12 13 14 14 15
11 14 17 17 17 17 17 14 10 6 3 3 5 5 5 5 12 6 5 4 4 5 5 4 3 2 2 4 2 1 0 2 2 5 4 4 6 6 7 7 8 9 10 13 15 15 16 16 15 15 15 14 15 16
10 12 16 20 18 17 19 17 15 7 7 6 6 9 5 6 5 4 3 2 3 3 5 2 2 2 1 3 0 2 1 4 5 5 3 4 7 7 6 6 7 10 12 14 15 15 17 17 17 16 15 13 16 17
9 11 13 19 20 15 13 15 14 6 6 7 7 7 6 4 4 4 4 3 3 4 4 2 2 1 2 3 4 4 6 5 5 3 3 5 7 8 8 9 10 11 11 13 12 14 15 16 17 17 16 15 16 17
12 5 8 17 16 14 8 10 7 5 6 6 9 5 4 4 5 5 6 4 4 6 2 1 2 3 5 3 6 6 4 4 3 3 4 6 10 10 10 9 10 10 11 13 13 15 15 17 17 17 17 16 16 16
9 3 11 14 12 11 12 6 6 9 6 7 4 3 2 2 2 3 4 6 5 3 3 3 6 5 4 4 4 5 3 2 3 4 5 8 8 8 8 9 10 12 14 12 14 15 16 15 15 16 18 14 15 16
2 4 10 12 7 4 4 5 6 7 8 4 3 4 3 2 3 3 5 6 5 3 3 4 4 8 5 4 3 2 4 5 6 6 7 8 10 10 10 12 12 13 13 15 15 14 13 12 13 11 13 12 13 13
1 5 12 14 7 4 5 6 6 7 6 3 3 3 2 2 6 5 6 6 6 6 5 5 7 5 3 3 2 3 5 4 5 6 8 12 11 11 11 12 13 14 15 14 14 11 11 14 11 8 8 9 9 9
8 8 12 10 5 5 6 4 4 6 3 4 4 8 6 5 5 7 9 8 8 6 7 7 4 3 2 4 3 3 5 5 6 8 8 7 7 12 12 10 9 10 10 12 12 12 9 9 9 9 9 9 9 9
6 6 8 6 5 6 5 3 5 4 5 3 3 2 3 5 12 12 10 7 9 7 5 4 4 5 6 6 6 6 7 7 7 6 6 6 6 7 8 7 9 8 9 8 8 8 9 8 7 7 8 9 9 9
2 6 3 6 5 5 5 5 5 4 4 3 2 3 3 3 4 6 6 8 7 6 4 3 5 5 7 9 7 8 8 10 10 9 8 7 7 7 7 6 7 8 8 7 7 7 7 6 6 7 7 7 7 7
4 5 4 5 7 7 2 3 5 3 4 2 4 5 4 4 3 3 6 6 4 4 3 5 7 8 8 8 9 11 9 9 8 7 7 7 7 7 7 7 6 6 7 6 6 6 5 6 7 6 6 6 7 6
6 6 5 4 6 2 3 5 3 4 5 4 4 3 3 3 2 5 5 3 4 3 4 4 4 4 5 9 8 7 6 5 6 6 5 6 6 7 7 7 6 6 6 5 5 5 5 5 5 6 5 6 5 5
10 9 6 7 4 7 5 5 5 5 4 4 5 4 2 4 5 4 3 2 3 3 3 4 5 5 6 5 5 6 8 5 5 7 6 5 5 5 6 7 7 7 4 6 5 5 3 4 5 6 5 5 6 4
9 6 5 4 4 5 3 4 3 2 3 3 2 1 4 5 6 3 3 1 1 2 1 2 4 5 5 4 4 4 4 4 5 6 5 5 3 4 3 4 4 5 6 3 5 5 4 3 5 7 5 4 5 6
7 4 3 5 3 4 5 5 4 6 5 4 3 4 5 6 2 1 2 2 2 2 3 4 4 5 5 4 4 4 5 5 6 6 5 6 6 5 4 5 3 0 2 5 5 5 6 4 4 3 3 2 1 3
4 5 5 6 6 5 6 5 5 4 2 4 4 6 5 4 2 1 2 1 3 4 5 5 6 5 5 5 3 3 4 4 7 7 6 5 4 3 4 3 2 5 3 3 4 4 4 5 5 4 3 3 2 1
5 2 5 6 6 7 6 4 2 1 2 2 5 2 2 3 1 2 1 2 2 4 5 5 3 4 6 5 5 4 3 2 4 3 4 1 2 3 2 3 3 2 2 3 3 4 6 4 5 4 4 4 3 1
2 3 6 5 7 5 3 2 1 3 3 3 4 4 3 3 4 2 2 3 3 3 2 3 3 3 3 4 2 4 3 2 2 5 5 4 5 2 2 3 3 2 2 4 2 3 6 5 4 4 3 3 4 3
3 4 6 6 5 2 3 2 2 5 5 4 3 5 3 2 3 4 3 2 3 3 5 4 4 2 5 3 3 3 2 4 3 5 5 4 3 2 1 1 1 2 3 4 3 2 2 3 2 3 3 3 1 1
4 4 6 6 1 3 3 2 1 3 2 4 3 3 4 4 2 3 3 3 3 3 3 4 5 1 3 2 1 1 4 4 3 3 5 3 3 1 2 2 2 3 3 3 3 1 1 2 1 2 2 2 3 3
4 5 5 5 4 1 3 4 4 3 4 3 1 2 2 4 3 4 3 1 3 4 4 3 3 4 5 5 5 3 3 3 4 5 5 5 5 3 2 2 3 3 4 3 3 2 2 1 1 2 2 3 3 2
Wind_Direction
307 305 300 295 293 285 275 264 259 249 230 214 206 202 198 200 196 186 153 179 155 223 263 187 154 172 165 182 172 178 83 252 119 171 184 189 173 208 197 245 194 192 204 195 81 92 248 336 2 136 245 287 276 260
312 307 304 299 292 291 283 274 262 253 220 200 196 193 191 189 187 174 159 172 177 219 273 226 173 186 191 198 170 188 187 172 176 136 149 116 257 71 163 246 220 229 186 192 177 208 203 135 203 204 53 334 333 358
320 318 314 306 300 302 302 296 281 260 200 184 185 181 181 178 177 171 134 149 169 189 279 193 167 160 98 128 151 167 282 142 114 162 150 123 240 119 180 228 256 278 177 189 89 219 184 146 316 74 22 343 316 331
327 330 336 330 326 322 317 319 327 178 163 163 166 166 169 170 171 159 150 161 159 110 262 155 142 110 88 125 139 163 168 82 117 114 132 150 169 181 234 227 194 201 158 193 247 219 77 209 212 254 294 336 299 299
342 352 351 353 0 1 349 34 65 105 130 144 153 152 154 159 156 147 110 167 162 128 199 111 101 46 76 59 80 95 146 129 119 99 104 187 263 108 254 296 230 182 187 173 215 221 184 220 201 183 208 241 250 299
346 354 10 22 28 35 45 70 90 102 120 137 139 139 142 140 141 154 136 239 142 254 80 93 135 68 61 33 28 79 71 95 111 146 161 176 208 99 6 258 269 278 237 177 235 307 214 218 190 181 217 182 97 2
2 6 43 47 49 49 57 89 93 99 114 120 127 134 138 139 116 159 184 135 182 226 78 78 64 117 117 66 297 184 212 118 129 167 134 152 227 146 115 292 353 353 340 1 347 313 38 170 185 104 105 107 105 69
31 49 67 58 62 62 70 79 86 86 92 107 124 129 134 116 120 75 92 130 118 73 72 108 101 73 126 154 174 182 81 28 13 134 72 125 5 47 133 333 335 352 352 6 348 335 249 111 79 89 124 110 73 56
49 57 56 55 58 61 75 85 83 82 74 67 65 112 96 27 46 64 152 142 188 119 109 80 119 134 333 44 67 27 70 72 335 123 150 98 140 73 2 354 322 355 15 321 308 8 32 78 74 44 64 68 88 76
64 63 50 41 35 41 41 59 75 69 65 31 42 47 63 42 315 138 29 31 9 1 48 92 75 87 69 84 69 81 34 176 161 225 113 116 97 101 24 355 325 345 357 357 19 10 358 31 42 48 59 62 79 85
68 52 23 13 17 28 55 143 145 198 342 24 50 52 201 273 87 54 81 94 202 40 24 16 92 129 353 132 138 155 149 129 149 222 146 146 90 15 2 350 351 347 353 20 52 55 44 57 72 72 67 67 75 81
26 18 19 20 14 23 29 34 57 133 225 157 122 118 42 33 41 72 30 357 48 59 11 37 17 96 0 358 108 162 181 148 219 198 85 76 35 4 358 359 10 3 1 34 45 60 63 67 76 81 82 81 81 83
25 26 25 19 16 24 23 25 42 76 82 39 54 55 37 335 45 46 29 11 46 0 0 351 20 110 54 44 53 219 220 200 96 50 68 43 358 14 14 20 31 35 48 58 60 60 66 69 70 74 80 78 83 80
20 20 27 25 19 19 25 26 29 47 51 56 44 34 57 13 50 22 9 3 3 339 325 312 54 63 47 61 13 224 76 26 54 57 66 356 13 26 31 34 51 58 60 64 64 65 68 70 67 65 67 73 81 79
37 27 20 12 7 12 30 30 28 48 51 50 34 44 47 17 357 359 341 338 4 309 327 345 43 84 53 65 23 20 41 56 30 57 10 16 30 43 42 41 47 51 55 62 68 71 73 76 75 73 68 73 76 79
1 47 10 355 356 7 26 31 26 58 58 62 42 26 336 43 333 353 358 352 358 328 289 282 358 68 53 56 49 14 65 46 44 17 338 40 49 46 50 53 58 67 71 72 73 75 76 73 74 75 70 65 66 72
16 27 336 355 358 9 28 67 45 49 54 49 32 349 65 104 230 302 330 333 311 296 40 27 45 20 48 55 52 26 43 42 51 34 32 41 61 61 67 71 69 73 74 77 76 72 72 75 78 76 73 68 72 70
34 307 345 349 3 42 31 49 76 68 63 26 58 15 22 342 313 331 346 335 353 43 38 52 37 40 37 51 38 25 77 63 52 47 40 44 57 62 63 66 63 65 66 60 61 62 61 66 74 73 77 77 77 72
344 341 347 352 20 78 60 32 65 84 45 65 35 8 17 13 19 7 4 4 41 37 69 48 52 40 31 23 335 29 76 71 80 61 52 42 45 58 62 60 60 60 61 60 62 62 58 55 58 59 69 76 77 75
10 358 347 348 27 75 71 41 75 93 79 115 106 63 63 43 12 31 32 28 40 58 48 45 35 9 14 4 345 82 94 97 101 86 63 48 45 56 53 56 58 63 64 63 60 58 62 61 52 59 62 65 76 71
13 338 358 16 35 60 85 88 64 96 131 95 167 185 117 66 42 35 36 14 47 41 63 48 45 45 43 36 41 61 60 73 74 79 92 80 57 64 65 59 62 63 62 60 66 65 63 63 64 65 70 71 72 75
326 0 38 15 67 49 56 13 101 140 89 140 119 62 58 56 20 24 41 39 67 35 45 64 55 56 59 52 53 55 73 79 76 75 69 78 76 68 62 58 65 66 61 61 63 64 61 60 76 77 77 76 75 79
25 39 37 40 66 58 296 23 62 45 72 43 36 36 26 33 53 33 64 35 80 45 63 69 62 52 63 67 71 60 55 69 70 65 65 65 62 61 64 62 64 79 81 71 71 73 69 58 60 74 80 80 83 78
36 55 48 62 68 106 30 26 54 53 40 45 59 48 32 93 81 60 60 31 29 91 104 71 63 66 58 54 52 47 47 67 84 78 69 81 80 68 64 59 60 63 72 82 77 71 66 55 57 67 70 82 74 92
66 351 62 12 3 67 56 30 20 54 57 38 68 9 348 62 69 69 95 98 8 31 44 67 73 63 71 59 49 50 43 58 75 74 33 76 94 89 73 63 54 40 40 79 72 80 53 60 58 68 67 78 94 84
72 348 67 34 352 73 58 68 60 71 97 65 66 355 48 69 63 62 84 178 356 7 52 94 98 87 68 65 75 54 46 62 80 76 38 26 55 107 99 85 72 42 14 85 100 92 77 68 83 86 75 76 86 99
64 11 18 25 8 71 65 52 49 63 55 46 353 29 58 64 72 96 84 42 85 358 43 77 106 107 110 101 83 60 58 61 76 86 78 58 51 53 102 120 109 241 1 72 88 114 121 123 118 109 108 25 91 140
74 53 66 320 52 22 91 55 52 54 13 338 56 42 105 144 182 20 121 141 121 94 79 70 71 80 83 74 63 73 75 86 93 94 80 54 33 48 63 64 92 95 86 96 119 109 110 128 124 115 102 96 16 173
53 40 75 34 45 43 39 76 80 27 327 59 103 87 91 47 88 109 170 130 98 109 106 104 60 78 75 63 47 37 36 111 122 80 98 147 3 331 347 60 40 49 89 67 78 129 145 144 153 148 160 158 191 95
18 78 89 58 63 52 321 79 98 279 18 103 98 91 56 28 358 16 75 112 102 112 143 132 141 120 137 107 65 12 1 45 142 137 152 183 207 222 109 82 55 44 74 81 71 1 18 34 26 35 41 20 23 26
100 74 73 58 81 271 223 248 37 56 37 49 31 94 135 159 347 1 44 56 101 97 94 85 57 34 116 143 134 109 7 326 18 78 94 110 123 110 125 202 174 94 92 85 89 87 79 50 59 72 58 37 309 262
42 81 114 96 100 293 32 15 96 88 13 54 355 38 14 53 47 301 311 52 59 82 152 135 118 215 218 154 136 162 130 142 140 123 111 106 97 61 33 44 58 82 76 62 59 90 147 157 142 157 187 280 292 290
62 55 60 89 67 124 267 94 33 57 36 52 355 151 155 127 174 248 308 62 157 161 155 167 172 158 167 146 152 159 138 147 156 125 113 114 121 106 78 63 67 70 78 72 46 41 25 341 235 268 291 307 307 303